Regional Weather Roundup
Issued by NWS

Home | Current Version | Previous Version | Text Only | Print | Product List | Glossary Off
Versions: 1 2 3 4 5 6 7 8 9 10 11 12 13 14 15 16 17 18 19 20 21 22 23 24 25 26 27 28 29 30 31 32 33 34 35 36 37 38 39 40 41 42 43 44 45 46 47 48 49 50

000
ASUS45 KBOU 011607
RWRCO

WEATHER ROUNDUP FOR COLORADO
NATIONAL WEATHER SERVICE DENVER/BOULDER CO
1000 AM MDT TUE SEP 01 2015

NOTE: "FAIR" INDICATES FEW OR NO CLOUDS BELOW 12000 FEET WITH NO
SIGNIFICANT WEATHER AND/OR OBSTRUCTIONS TO VISIBILITY.

COZ001>005-013-030-031-011700-
...NORTHWEST COLORADO...

CITY           SKY/WX    TMP DP  RH WIND       PRES   REMARKS
CRAIG          SUNNY     69  48  47 E9        30.22S
HAYDEN         NOT AVBL
MEEKER         SUNNY     65  49  56 CALM      30.24S
MOUNT WERNER   NOT AVBL
STEAMBOAT SPGS SUNNY     59  46  63 CALM      30.28S
WALDEN         SUNNY     55  46  71 S5        30.33S
$$

COZ006>008-011-011700-
...WEST CENTRAL VALLEYS...

CITY           SKY/WX    TMP DP  RH WIND       PRES   REMARKS
GRAND JUNCTION MOSUNNY   72  50  45 SE9       30.15S
MONTROSE       SUNNY     71  48  43 S6        30.23F
EAGLE          NOT AVBL
RIFLE          MOSUNNY   65  50  58 NW3       30.21F
DELTA          SUNNY     73  49  43 NE6       30.20F
NUCLA          SUNNY     73  45  35 CALM      30.27S
$$

COZ017>023-064>068-011700-
...SOUTHWEST COLORADO...

CITY           SKY/WX    TMP DP  RH WIND       PRES   REMARKS
DURANGO        MOSUNNY   65  45  48 E5        30.30R
CORTEZ         SUNNY     73  48  41 N6        30.24S
PAGOSA SPRINGS MOSUNNY   63  42  47 S3        30.36S
TELLURIDE      SUNNY     61  43  51 CALM      30.46R
WOLF CREEK PAS MOSUNNY   50  34  53 CALM      30.65R
$$

COZ009-010-012-014-032>034-037-058>063-011700-
...CENTRAL COLORADO...

CITY           SKY/WX    TMP DP  RH WIND       PRES   REMARKS
ASPEN          MOSUNNY   63  44  50 N6        30.34S
BUENA VISTA    SUNNY     64  41  42 CALM      30.35F
COPPER MTN     CLOUDY    52  39  62 W13       30.62S
BERTHOUD PASS  FAIR      43  32  65 NW17      30.64R
COTTONWOOD PAS SUNNY     63  41  45 CALM      30.47S
GUNNISON       SUNNY     57  41  54 CALM      30.41S
KREMMLING      SUNNY     54  43  66 CALM      30.36F
LEADVILLE      SUNNY     59  39  47 NW6       30.46S
MONARCH PASS   MOSUNNY   46  37  71 W13       30.72R
SALIDA         SUNNY     64  43  47 CALM      30.40F
SUNLIGHT       MOSUNNY   55  46  71 CALM      30.57R
WILKERSON PASS SUNNY     52  36  54 NW8       30.59R
$$

COZ069>075-011700-
...SAN LUIS VALLEY/SANGRE DE CRISTO MOUNTAINS...

CITY           SKY/WX    TMP DP  RH WIND       PRES   REMARKS
ALAMOSA        PTSUNNY   57  49  74 CALM      30.35S
LA VETA PASS   PTSUNNY   52  43  71 MISG      30.48R
SAGUACHE       PTSUNNY   63  45  51 NW10      30.36F
$$

COZ035-036-038>040-011700-
...NORTHERN COLORADO FRONT RANGE...

CITY           SKY/WX    TMP DP  RH WIND       PRES   REMARKS
DENVER INTL AP MOSUNNY   77  47  34 SW7       30.13R
DMNS CITY PARK   N/A     77  48  36 W3        30.13R
AURORA         MOSUNNY   76  48  36 VRB7      30.15S
FRONT RANGE AP MOSUNNY   79  41  25 SW5       30.14S
ERIE MUNI ARPT SUNNY     75  49  39 CALM      30.11S
BOULDER MUN AP SUNNY     75  52  43 SE5       30.11S
CENTENNIAL     MOSUNNY   75  45  34 W6        30.16S
BROOMFIELD     MOSUNNY   75  52  43 CALM      30.15R
FORT COLLINS   SUNNY     70  50  49 SE3       30.11S
LONGMONT       SUNNY     75  53  45 E5        30.12S
$$

COZ041-046-047-076>085-087-088-011700-
...PIKES PEAK/PALMER DIVIDE AND SOUTHERN FOOTHILLS...

CITY           SKY/WX    TMP DP  RH WIND       PRES   REMARKS
COLO. SPRINGS  MOSUNNY   69  53  56 CALM      30.21R
A. F. ACADEMY  MOSUNNY   70  50  49 SE7       30.21R
ELLICOTT       MOSUNNY  N/A N/A N/A W8        30.18S
FALCON         MOSUNNY   67  52  57 MISG      30.25S
FORT CARSON    SUNNY     70  54  56 N5        30.17S
LIMON          SUNNY     76  55  48 CALM      30.14R
MONUMENT HILL  SUNNY     72  39  30 NW9       30.26R
TRINIDAD       MOSUNNY   75  49  39 W7        30.17F
$$

COZ042>045-048>051-090-091-011700-
...NORTHEAST COLORADO...

CITY           SKY/WX    TMP DP  RH WIND       PRES   REMARKS
GREELEY ARPT   SUNNY     72  54  53 CALM      30.10S
AKRON          SUNNY     73  56  54 W8        30.08R
BURLINGTON     SUNNY     77  57  50 S6        30.07R
WRAY           CLOUDY    77  58  52 W5        30.03S
STERLING       SUNNY     77  59  53 SW8       30.02F
HOLYOKE        NOT AVBL
FORT MORGAN    SUNNY     73  53  49 W10       30.08S
$$

COZ086-089-092>099-011700-
...SOUTHEAST COLORADO...

CITY           SKY/WX    TMP DP  RH WIND       PRES   REMARKS
PUEBLO         MOSUNNY   75  54  47 VRB3      30.10S
LA JUNTA       SUNNY     77  55  46 SW5       30.08S
LAMAR          SUNNY     76  60  57 CALM      30.04S
SPRINGFIELD      N/A     80  53  39 VRB3      30.07F
$$




USA.gov is the U.S. government's official web portal to all federal, state and local government web resources and services.